This is the latest recevied weather packets stored in our database for station/object LROD. If no packets are shown the sender has not sent any weather packets the latest 10 day(s).
| Time | Temp. | Humidity | Pressure | Rain* | Wind** | Luminosity | Snow |
|---|---|---|---|---|---|---|---|
| 1777678410 | 6.11° C | 66% | 1024 hPa | - | - | - | - |
| 1777677509 | 7.22° C | 61% | 1024 hPa | - | - | - | - |
| 1777676610 | 7.22° C | 61% | 1024 hPa | - | - | - | - |
| 1777675709 | 7.22° C | 61% | 1024 hPa | - | - | - | - |
| 1777674809 | 7.22° C | 61% | 1024 hPa | - | - | - | - |
| 1777673909 | 7.78° C | 57% | 1024 hPa | - | - | - | - |
| 1777673009 | 7.78° C | 57% | 1024 hPa | - | - | - | - |
| 1777672109 | 6.11° C | 61% | 1024 hPa | - | - | - | - |
| 1777671210 | 6.11° C | 61% | 1024 hPa | - | - | - | - |
| 1777670309 | 7.22° C | 57% | 1024 hPa | - | - | - | - |
| 1777669410 | 7.22° C | 57% | 1024 hPa | - | - | - | - |
| 1777668509 | 7.22° C | 57% | 1024 hPa | - | - | - | - |
| 1777667609 | 7.22° C | 57% | 1024 hPa | - | - | - | - |
| 1777666710 | 7.78° C | 53% | 1024 hPa | - | - | - | - |
| 1777665809 | 7.78° C | 53% | 1024 hPa | - | - | - | - |
| 1777664927 | 11.11° C | 41% | 1024 hPa | - | - | - | - |
| 1777664031 | 11.11° C | 41% | 1024 hPa | - | - | - | - |
| 1777663109 | 12.78° C | 36% | 1024 hPa | - | - | - | - |
| 1777662209 | 12.78° C | 36% | 1024 hPa | - | - | - | - |
| 1777661309 | 12.78° C | 36% | 1024 hPa | - | - | - | - |
| 1777660439 | 12.78° C | 36% | 1024 hPa | - | - | - | - |
| 1777659510 | 13.89° C | 31% | 1024 hPa | - | - | - | - |
| 1777658632 | 13.89° C | 31% | 1024 hPa | - | - | - | - |
| 1777657710 | 15° C | 29% | 1023 hPa | - | - | - | - |
| 1777656809 | 15° C | 29% | 1023 hPa | - | - | - | - |
* Rain since midnight (hover to see other rain measurements)
** Current wind speed in m/s (hover to see current wind gust speed)